Location: Treviso
(45.6669°N, 12.2430°E)
Time: 17:02:42
(UTC+01:00)

Envisat - Pass Details

Date: 05 December 2022
Orbit: 763 x 765 km, 98.2° (Epoch: 02 February)

Event Time Altitude Azimuth Distance (km) Brightness Sun altitude
Rises 17:03:23 0° 219° (SW) 3,220 7.6 -6.3°
Reaches altitude 10° 17:07:14 10° 249° (WSW) 2,302 7.3 -6.9°
Maximum altitude 17:09:15 12° 273° (W) 2,151 6.4 -7.3°
Drops below altitude 10° 17:11:15 10° 297° (WNW) 2,309 6.1 -7.6°
Sets 17:15:09 0° 327° (NNW) 3,242 6.4 -8.2°
